Weather History for Taloyoak, NU

Change the Weather History Date:

Sunday, February 10, 2013

  Actual Average Record
Temperature  
Mean Temperature -27 °F -  
Max Temperature -14 °F -17 °F 5 °F (2012)
Min Temperature -40 °F -29 °F -43 °F (2000)
Degree Days  
Heating Degree Days 92    
Moisture  
Dew Point -28 °F    
Average Humidity 74    
Maximum Humidity 91    
Minimum Humidity 58    
Precipitation  
Precipitation 0.01 in - - ()
Sea Level Pressure  
Sea Level Pressure 30.11 in    
Wind  
Wind Speed 9 mph ()    
Max Wind Speed 17 mph    
Max Gust Speed -    
Visibility 10.4 miles    
Events Fog , Snow    
Averages and records for this station are not official NWS values.
T = Trace of Precipitation, MM = Missing Value Source: Averaged Metar Reports

Daily Weather History Graph

Daily Weather History Graph

Search for Another Location

Airport:

Trip Planner

Search our weather history database for the weather conditions in past years. The results will help you decide how hot, cold, wet, or windy it might be!

Date:

Astronomy

Feb. 10, 2013 Rise Set
Actual Time 9:05 AM CST 3:52 PM CST
Civil Twilight 7:55 AM CST 5:03 PM CST
Nautical Twilight 6:43 AM CST 6:15 PM CST
Astronomical Twilight 5:34 AM CST 7:24 PM CST
Moon 8:08 AM CST (2/10) 5:44 PM CST (2/10)
Length of Visible Light 9h 08m
Length of Day
6h 46m
New Moon, 0% of the Moon is Illuminated
Feb 10
New Moon
Feb 17
First Quarter
Feb 25
Full
Mar 4
Last Quarter
Mar 11
New

Hourly Weather History & Observations

Time (CST) Temp. Windchill Dew Point Humidity Pressure Visibility Wind Dir Wind Speed Gust Speed Precip Events Conditions
12:00 AM -37 °F - - % 30.19 in 15 mi SSE 6.9 mph - - Snow Snow
12:00 AM -38.2 °F -60.7 °F - N/A% 30.19 in 15.0 mi SSE 8.1 mph - N/A   Clear
1:00 AM -38.2 °F -58.9 °F - N/A% 30.21 in 15.0 mi South 6.9 mph - N/A   Clear
2:00 AM -36.4 °F -60.1 °F - N/A% 30.22 in 15.0 mi SSE 9.2 mph - N/A   Clear
3:00 AM -36.4 °F -60.1 °F - N/A% 30.22 in 15.0 mi SSE 9.2 mph - N/A   Clear
4:00 AM -36.4 °F -61.5 °F - N/A% 30.22 in 15.0 mi SSE 10.4 mph - N/A   Clear
5:00 AM -38.2 °F -65.0 °F - N/A% 30.22 in 15.0 mi SSE 11.5 mph - N/A   Clear
6:00 AM -37 °F - - % 30.22 in 15 mi SE 12.7 mph - - Snow Snow
6:00 AM -36.4 °F -63.9 °F - N/A% 30.22 in 15.0 mi SSE 12.7 mph - N/A   Clear
7:00 AM -36.4 °F -62.7 °F - N/A% 30.22 in 15.0 mi SSE 11.5 mph - N/A   Clear
8:00 AM -36.4 °F -63.9 °F - N/A% 30.20 in 13.0 mi SSE 12.7 mph - N/A   Partly Cloudy
9:00 AM -34.6 °F -60.5 °F - N/A% 30.19 in 10.0 mi SSE 11.5 mph - N/A   Mostly Cloudy
10:00 AM -34.6 °F -60.5 °F -41.8 °F 68% 30.19 in 15.0 mi SSE 11.5 mph - N/A   Mostly Cloudy
11:00 AM -32.8 °F -58.2 °F -40.0 °F 68% 30.17 in 12.0 mi SSE 11.5 mph - N/A   Mostly Cloudy
12:00 PM -33 °F - -39 °F 58% 30.15 in 6 mi SSE 11.5 mph - - Snow Snow
12:00 PM -32.8 °F -58.2 °F -38.2 °F 75% 30.15 in 6.0 mi SSE 11.5 mph - N/A   Ice Crystals
12:52 PM - - - N/A% - 4.0 mi South 10.4 mph - N/A   Mostly Cloudy
1:00 PM -31.0 °F -54.7 °F -32.8 °F 91% 30.12 in 4.0 mi South 10.4 mph - N/A Snow Light Snow
1:40 PM - - - N/A% - 6.0 mi SSE 10.4 mph - N/A   Ice Crystals
2:00 PM -27.4 °F -49.0 °F -34.6 °F 69% 30.09 in 6.0 mi SSE 9.2 mph - N/A   Ice Crystals
2:07 PM - - - N/A% - 3.0 mi SSE 8.1 mph - N/A Fog Ice Crystals
3:00 PM -23.8 °F -44.5 °F -29.2 °F 76% 30.07 in 6.0 mi SSE 9.2 mph - N/A Fog Ice Crystals
4:00 PM -20.2 °F -30.9 °F -25.6 °F 76% 30.05 in 6.0 mi South 3.5 mph - N/A Fog Ice Crystals
5:00 PM -18.4 °F -28.9 °F -23.8 °F 76% 30.03 in 10.0 mi SE 3.5 mph - N/A   Mostly Cloudy
6:00 PM -16 °F - -21 °F 68% 29.99 in 7 mi SE 15.0 mph - - Snow Snow
6:00 PM -14.8 °F -38.3 °F -20.2 °F 77% 29.99 in 8.0 mi SE 15.0 mph - N/A Snow Low Drifting Snow
7:00 PM -14.8 °F -39.1 °F -20.2 °F 77% 29.96 in 8.0 mi SE 16.1 mph - N/A Snow Low Drifting Snow
8:00 PM -14.8 °F -38.3 °F -20.2 °F 77% 29.93 in 8.0 mi SE 15.0 mph - N/A Snow Low Drifting Snow
9:00 PM -16.6 °F -40.6 °F -22.0 °F 76% 29.91 in 12.0 mi SE 15.0 mph - N/A Snow Low Drifting Snow
9:14 PM - - - N/A% - 8.0 mi SE 16.1 mph - N/A   Unknown
10:00 PM -14.8 °F -39.8 °F -20.2 °F 77% 29.87 in 13.0 mi SE 17.3 mph - N/A Snow Light Snow
11:00 PM -14.8 °F -39.1 °F -20.2 °F 77% 29.85 in 13.0 mi SE 16.1 mph - N/A Snow Light Snow